When you browse on this site, cookies collect data to enhance your experience and personalize the content and advertising you see.
Visit our Privacy Policy to learn more. By continuing to use the site, you agree to this use of cookies and data.
  • In Hungary
  • List of Countries
  • For 7 days
  • Water Temperature
  • Weather Map
  • News
  • Weather Widgets
  • user-avatar
    Login

    Hourly Weather Alwar

    Today, 7 April, Tuesday

    Time Temperature Precipitation Wind Pressure Humidity
    00:00 +28°C° 0 mm 2 mps 727 mmHg 21%
    01:00 +27°C° 0 mm 2 mps 727 mmHg 23%
    02:00 +26°C° 0 mm 2 mps 727 mmHg 25%
    03:00 +26°C° 0 mm 1 mps 727 mmHg 26%
    04:00 +25°C° 0 mm 1 mps 726 mmHg 28%
    05:00 +23°C° 0 mm 0 mps 726 mmHg 29%
    06:00 +25°C° 0 mm 0 mps 727 mmHg 26%
    07:00 +29°C° 0 mm 1 mps 727 mmHg 23%
    08:00 +31°C° 0 mm 1 mps 728 mmHg 20%
    09:00 +33°C° 0 mm 1 mps 728 mmHg 17%
    10:00 +35°C° 0 mm 1 mps 728 mmHg 15%
    11:00 +37°C° 0 mm 1 mps 728 mmHg 12%
    12:00 +39°C° 0 mm 2 mps 727 mmHg 11%
    13:00 +40°C° 0 mm 3 mps 726 mmHg 10%
    14:00 +41°C° 0 mm 4 mps 725 mmHg 8%
    15:00 +39°C° 0 mm 3 mps 725 mmHg 10%
    16:00 +38°C° 0 mm 3 mps 724 mmHg 11%
    17:00 +37°C° 0 mm 2 mps 724 mmHg 12%
    18:00 +35°C° 0.1 mm 2 mps 724 mmHg 15%
    19:00 +32°C° 0.1 mm 2 mps 725 mmHg 18%
    20:00 +30°C° 0.1 mm 2 mps 725 mmHg 21%
    21:00 +30°C° 0 mm 2 mps 725 mmHg 22%
    22:00 +29°C° 0 mm 2 mps 725 mmHg 24%
    23:00 +28°C° 0 mm 2 mps 725 mmHg 25%

    Tomorrow, 8 April, Wednesday

    Time Temperature Precipitation Wind Pressure Humidity
    00:00 +27°C° 0 mm 1 mps 725 mmHg 26%
    01:00 +27°C° 0 mm 1 mps 725 mmHg 27%
    02:00 +26°C° 0 mm 1 mps 725 mmHg 28%
    03:00 +25°C° 0 mm 1 mps 725 mmHg 29%
    04:00 +25°C° 0 mm 1 mps 725 mmHg 31%
    05:00 +24°C° 0 mm 2 mps 725 mmHg 33%
    06:00 +26°C° 0 mm 2 mps 726 mmHg 31%
    07:00 +27°C° 0 mm 2 mps 726 mmHg 29%
    08:00 +28°C° 0 mm 2 mps 727 mmHg 27%
    09:00 +31°C° 0 mm 3 mps 727 mmHg 23%
    10:00 +34°C° 0 mm 3 mps 727 mmHg 20%
    11:00 +36°C° 0 mm 4 mps 727 mmHg 16%
    12:00 +37°C° 0 mm 5 mps 727 mmHg 13%
    13:00 +39°C° 0 mm 5 mps 726 mmHg 11%
    14:00 +40°C° 0 mm 6 mps 726 mmHg 8%
    15:00 +40°C° 0 mm 6 mps 725 mmHg 8%
    16:00 +39°C° 0 mm 7 mps 725 mmHg 9%
    17:00 +38°C° 0 mm 7 mps 725 mmHg 9%
    18:00 +35°C° 0 mm 6 mps 725 mmHg 11%
    19:00 +33°C° 0 mm 5 mps 726 mmHg 13%
    20:00 +30°C° 0 mm 3 mps 726 mmHg 15%
    21:00 +29°C° 0 mm 3 mps 726 mmHg 17%
    22:00 +28°C° 0 mm 3 mps 726 mmHg 19%
    23:00 +27°C° 0 mm 3 mps 726 mmHg 21%

    Day after tomorrow, 9 April, Thursday

    Time Temperature Precipitation Wind Pressure Humidity
    00:00 +26°C° 0 mm 3 mps 726 mmHg 22%
    01:00 +26°C° 0 mm 3 mps 726 mmHg 24%
    02:00 +25°C° 0 mm 3 mps 726 mmHg 25%
    03:00 +25°C° 0 mm 2 mps 726 mmHg 27%
    04:00 +24°C° 0 mm 2 mps 726 mmHg 28%
    05:00 +24°C° 0 mm 1 mps 726 mmHg 29%
    06:00 +25°C° 0 mm 1 mps 726 mmHg 27%
    07:00 +27°C° 0 mm 2 mps 727 mmHg 24%
    08:00 +29°C° 0 mm 2 mps 728 mmHg 22%
    09:00 +31°C° 0 mm 2 mps 728 mmHg 18%
    10:00 +34°C° 0 mm 3 mps 728 mmHg 15%
    11:00 +36°C° 0 mm 4 mps 728 mmHg 12%
    12:00 +37°C° 0 mm 5 mps 728 mmHg 11%
    13:00 +39°C° 0 mm 6 mps 727 mmHg 9%
    14:00 +40°C° 0 mm 6 mps 726 mmHg 8%
    15:00 +40°C° 0 mm 6 mps 726 mmHg 9%
    16:00 +39°C° 0 mm 6 mps 726 mmHg 10%
    17:00 +38°C° 0 mm 6 mps 725 mmHg 10%
    18:00 +35°C° 0 mm 5 mps 726 mmHg 12%
    19:00 +33°C° 0 mm 4 mps 726 mmHg 14%
    20:00 +30°C° 0 mm 3 mps 726 mmHg 16%
    21:00 +30°C° 0 mm 3 mps 726 mmHg 17%
    22:00 +29°C° 0 mm 2 mps 727 mmHg 18%
    23:00 +28°C° 0 mm 2 mps 727 mmHg 19%

    10 April, Friday

    Time Temperature Precipitation Wind Pressure Humidity
    00:00 +28°C° 0 mm 2 mps 726 mmHg 19%
    01:00 +28°C° 0 mm 2 mps 726 mmHg 19%
    02:00 +27°C° 0 mm 1 mps 725 mmHg 19%
    03:00 +27°C° 0 mm 1 mps 725 mmHg 20%
    04:00 +25°C° 0 mm 0 mps 725 mmHg 21%
    05:00 +24°C° 0 mm 0 mps 726 mmHg 21%
    06:00 +28°C° 0 mm 1 mps 726 mmHg 19%
    07:00 +30°C° 0 mm 1 mps 727 mmHg 17%
    08:00 +34°C° 0 mm 2 mps 728 mmHg 15%
    09:00 +36°C° 0 mm 2 mps 728 mmHg 13%
    10:00 +38°C° 0 mm 3 mps 728 mmHg 11%
    11:00 +41°C° 0 mm 4 mps 728 mmHg 9%
    12:00 +41°C° 0 mm 4 mps 727 mmHg 9%
    13:00 +42°C° 0 mm 4 mps 727 mmHg 8%
    14:00 +43°C° 0 mm 5 mps 726 mmHg 7%
    15:00 +42°C° 0 mm 5 mps 726 mmHg 7%
    16:00 +42°C° 0 mm 4 mps 725 mmHg 8%
    17:00 +42°C° 0 mm 4 mps 725 mmHg 8%
    18:00 +39°C° 0 mm 3 mps 725 mmHg 9%
    19:00 +37°C° 0 mm 3 mps 725 mmHg 10%
    20:00 +35°C° 0 mm 2 mps 725 mmHg 11%
    21:00 +34°C° 0 mm 2 mps 726 mmHg 12%
    22:00 +32°C° 0 mm 2 mps 726 mmHg 12%
    23:00 +31°C° 0 mm 2 mps 726 mmHg 13%

    11 April, Saturday

    Time Temperature Precipitation Wind Pressure Humidity
    00:00 +30°C° 0 mm 2 mps 726 mmHg 15%
    01:00 +30°C° 0 mm 2 mps 726 mmHg 16%
    02:00 +29°C° 0 mm 2 mps 725 mmHg 17%
    03:00 +28°C° 0 mm 2 mps 726 mmHg 18%
    04:00 +28°C° 0 mm 1 mps 726 mmHg 19%
    05:00 +28°C° 0 mm 1 mps 726 mmHg 20%
    06:00 +29°C° 0 mm 1 mps 726 mmHg 18%
    07:00 +31°C° 0 mm 1 mps 727 mmHg 16%
    08:00 +34°C° 0 mm 2 mps 728 mmHg 14%
    09:00 +36°C° 0 mm 2 mps 728 mmHg 12%
    10:00 +38°C° 0 mm 2 mps 728 mmHg 11%
    11:00 +40°C° 0 mm 3 mps 728 mmHg 10%
    12:00 +40°C° 0 mm 3 mps 727 mmHg 9%
    13:00 +42°C° 0 mm 3 mps 727 mmHg 8%
    14:00 +43°C° 0 mm 3 mps 726 mmHg 7%
    15:00 +43°C° 0 mm 3 mps 726 mmHg 8%
    16:00 +42°C° 0 mm 4 mps 725 mmHg 8%
    17:00 +42°C° 0 mm 5 mps 725 mmHg 8%
    18:00 +40°C° 0 mm 5 mps 725 mmHg 9%
    19:00 +37°C° 0 mm 4 mps 725 mmHg 11%
    20:00 +35°C° 0 mm 4 mps 726 mmHg 13%
    21:00 +34°C° 0 mm 4 mps 726 mmHg 13%
    22:00 +33°C° 0 mm 4 mps 726 mmHg 14%
    23:00 +32°C° 0 mm 4 mps 726 mmHg 14%

    12 April, Sunday

    Time Temperature Precipitation Wind Pressure Humidity
    00:00 +32°C° 0 mm 4 mps 726 mmHg 15%
    01:00 +30°C° 0 mm 4 mps 725 mmHg 16%
    02:00 +30°C° 0 mm 4 mps 725 mmHg 17%
    03:00 +29°C° 0 mm 4 mps 725 mmHg 18%
    04:00 +28°C° 0 mm 3 mps 725 mmHg 19%
    05:00 +27°C° 0 mm 2 mps 725 mmHg 20%
    06:00 +29°C° 0 mm 2 mps 726 mmHg 18%
    07:00 +31°C° 0 mm 2 mps 726 mmHg 16%
    08:00 +34°C° 0 mm 2 mps 727 mmHg 15%
    09:00 +36°C° 0 mm 3 mps 727 mmHg 13%
    10:00 +38°C° 0 mm 4 mps 727 mmHg 11%
    11:00 +41°C° 0 mm 4 mps 727 mmHg 9%
    12:00 +42°C° 0 mm 5 mps 727 mmHg 9%
    13:00 +43°C° 0 mm 5 mps 726 mmHg 9%
    14:00 +44°C° 0 mm 6 mps 726 mmHg 9%
    15:00 +44°C° 0 mm 6 mps 725 mmHg 10%
    16:00 +42°C° 0 mm 6 mps 724 mmHg 11%
    17:00 +41°C° 0 mm 6 mps 724 mmHg 12%
    18:00 +39°C° 0 mm 5 mps 724 mmHg 13%
    19:00 +37°C° 0 mm 4 mps 724 mmHg 15%
    20:00 +35°C° 0 mm 3 mps 725 mmHg 17%
    21:00 +34°C° 0 mm 2 mps 725 mmHg 17%
    22:00 +32°C° 0 mm 2 mps 725 mmHg 18%
    23:00 +32°C° 0 mm 1 mps 725 mmHg 19%
    Show more